Temperature
6 5 5 5 5 7 6 6 6 6 6 6 5 5 5 5 5 5 5 6 6 7 7 7 7 7 7 7 7 7 7 7 7 7 8 7 7 7 7 7 7 7 7 7
5 5 5 6 6 6 6 6 6 6 6 6 5 5 5 4 5 5 5 6 6 7 7 7 7 7 7 7 7 7 7 7 7 7 7 7 7 7 7 7 7 7 7 7
5 5 6 6 5 6 5 5 5 5 5 5 5 5 5 5 5 5 5 6 6 7 7 7 7 7 7 7 7 6 6 6 6 6 6 6 6 6 6 6 6 6 6 6
4 5 5 5 5 5 5 5 5 5 5 4 5 5 5 4 4 4 4 5 6 6 6 7 7 6 6 6 6 6 6 6 6 6 6 6 6 6 6 6 6 5 5 5
4 4 5 5 5 5 5 5 4 4 4 3 3 4 4 4 4 4 4 5 5 6 6 6 6 6 6 6 6 6 5 5 5 5 5 5 5 5 5 5 5 5 5 4
4 4 4 4 5 5 4 4 3 2 2 3 3 3 4 3 4 4 4 4 5 6 6 6 6 6 6 6 5 5 5 5 5 5 5 5 5 5 5 5 4 4 4 4
4 4 4 4 4 4 4 3 3 3 2 3 3 3 4 4 3 4 4 4 5 6 6 6 6 6 5 5 5 5 5 5 4 4 4 4 4 4 4 4 4 4 4 4
3 3 3 3 4 4 3 4 3 4 3 2 2 2 3 3 3 3 4 4 5 5 5 5 5 5 5 5 5 5 4 4 4 4 4 4 4 3 3 3 3 3 3 3
3 3 3 3 3 4 3 2 3 2 1 2 2 1 2 2 2 2 3 4 4 5 5 5 5 5 5 5 4 4 4 4 4 3 3 3 3 3 3 3 3 3 3 2
2 2 2 3 3 3 3 2 1 2 3 3 3 2 3 3 3 2 2 3 4 4 5 5 5 5 4 4 4 4 3 3 3 3 3 3 3 3 2 2 2 2 2 2
2 2 1 2 2 2 2 2 1 1 1 2 2 3 3 3 3 2 2 3 4 4 4 5 4 4 4 4 3 3 3 3 2 2 2 2 2 2 2 2 2 2 2 2
1 1 1 1 1 1 1 1 1 2 1 -0 0 2 3 1 1 1 2 3 4 4 4 4 4 4 4 3 3 3 2 2 2 2 2 2 2 2 1 1 1 1 1 1
1 0 1 1 1 -0 -0 0 -0 -0 -1 -1 0 3 2 1 1 2 2 3 3 4 4 4 4 4 3 3 3 2 2 2 2 2 1 1 1 1 1 1 1 1 1 1
1 -0 1 2 2 0 -1 -1 -1 -0 0 -0 -0 1 2 2 1 1 2 3 3 3 3 3 3 3 3 3 3 2 2 2 1 1 1 1 1 1 1 1 0 0 0 0
-0 -1 -1 -1 -1 -1 -1 -1 -1 -1 -0 0 1 0 2 2 1 2 2 2 3 3 3 3 3 3 3 2 2 2 2 1 1 1 1 1 1 1 0 0 -0 -0 -0 -0
-2 -1 -2 -1 -1 -2 -1 -1 -1 -1 -1 -1 -0 0 1 1 1 1 2 2 2 3 3 3 3 3 2 2 2 2 2 1 1 1 1 1 0 0 -0 -0 -0 -1 -1 -1
-2 -2 -1 -1 -2 -1 -0 -1 -1 -2 -2 -1 0 1 0 -0 -0 1 2 2 2 2 2 3 2 2 2 2 2 2 1 1 1 1 0 0 -0 -0 -0 -1 -1 -1 -1 -1
-3 -2 -2 -2 -1 0 1 -1 -1 -1 -2 -2 -1 -1 -1 -0 1 1 2 2 2 2 2 2 2 2 2 2 1 1 1 1 1 0 0 -0 -0 -1 -1 -1 -1 -1 -1 -1
-3 -2 -3 -3 -2 -1 -0 -1 -2 -2 -1 -2 -2 -2 -1 -1 -1 1 2 2 2 2 2 2 2 1 1 1 1 1 1 1 0 0 -0 -0 -1 -1 -1 -1 -1 -2 -2 -2
-4 -3 -3 -3 -1 -1 1 -1 -2 -1 -1 -1 -2 -2 -2 -2 -2 -0 2 2 2 1 1 1 1 1 1 1 1 1 1 0 0 -0 -0 -1 -1 -1 -1 -2 -2 -2 -2 -2
-3 -4 -3 -3 -3 -2 -1 -2 -1 -0 0 -0 -1 -1 -2 -2 -1 1 1 1 1 1 1 1 1 1 1 1 0 0 0 0 -0 -0 -1 -1 -1 -2 -2 -2 -2 -2 -2 -3
-3 -4 -4 -4 -3 -1 -2 -3 -2 -0 0 0 0 0 -0 -0 0 0 0 0 0 0 0 0 0 0 0 0 0 0 -0 -0 -1 -1 -1 -2 -2 -2 -2 -2 -2 -3 -3 -3
-4 -3 -3 -3 -1 -1 -2 -1 0 0 0 1 1 1 0 -0 0 0 0 0 -0 -0 -0 -0 -0 -0 -0 -0 -0 -0 -1 -1 -1 -1 -2 -2 -2 -2 -2 -3 -3 -3 -3 -3
-5 -5 -5 -5 -4 -3 -1 -0 0 0 1 1 1 0 0 -0 -0 -0 -0 -0 -0 -0 -1 -1 -1 -1 -1 -1 -1 -1 -1 -1 -1 -2 -2 -2 -2 -2 -3 -3 -3 -4 -4 -4
-4 -6 -6 -5 -4 -3 -1 0 1 1 0 0 0 0 -0 -0 -0 -0 -1 -1 -1 -1 -1 -1 -1 -1 -1 -1 -1 -1 -2 -2 -2 -2 -2 -3 -3 -3 -3 -3 -3 -4 -4 -4
-5 -5 -4 -3 -2 -3 -1 1 1 0 0 0 -0 -0 -0 -1 -1 -1 -1 -1 -1 -1 -1 -2 -2 -2 -2 -2 -2 -2 -2 -2 -2 -2 -2 -3 -3 -3 -3 -4 -4 -4 -4 -4
Wind_Speed
2 3 3 6 5 2 3 3 3 3 2 1 4 7 7 4 3 5 5 4 4 4 3 1 1 2 3 3 3 3 3 3 3 2 2 2 1 1 1 2 3 3 3 3
3 3 5 3 3 2 2 2 2 2 2 0 3 7 7 5 5 6 7 7 6 4 2 1 2 2 3 3 3 3 3 3 3 2 1 1 1 1 1 2 3 3 3 2
5 2 2 4 3 3 3 4 3 2 3 2 3 6 4 3 3 4 5 5 5 6 5 4 3 3 3 4 4 4 3 3 3 3 2 2 2 2 1 1 1 2 2 1
2 2 1 3 3 4 4 3 3 2 0 3 1 5 6 4 4 5 6 5 6 5 5 4 4 4 4 4 4 4 4 3 3 3 4 3 2 1 1 1 1 2 2 2
2 0 1 3 3 4 3 1 2 1 2 2 1 3 8 2 5 7 6 5 5 5 5 5 5 5 4 4 4 4 4 3 3 3 4 4 2 1 0 0 0 1 1 2
2 1 1 3 1 3 4 4 4 4 3 3 5 5 7 5 6 4 4 4 4 5 4 4 3 3 3 3 3 4 4 3 3 3 3 3 3 2 1 0 1 1 1 1
2 2 1 1 3 2 4 4 2 2 2 6 2 4 9 6 5 5 6 5 4 4 4 3 3 3 3 3 4 4 4 3 3 3 3 3 3 3 3 2 2 1 1 2
2 4 3 1 3 4 4 6 6 5 5 5 2 7 7 5 4 3 3 3 3 3 3 3 4 4 4 4 4 4 4 4 4 4 3 3 3 2 2 3 2 3 3 3
5 4 1 1 1 5 5 3 3 4 1 3 6 7 8 3 3 2 2 2 3 3 3 3 3 3 4 4 4 5 5 4 4 4 3 3 3 2 2 2 2 2 2 2
6 3 2 1 2 2 3 6 4 4 3 5 6 5 5 4 5 3 3 3 4 2 2 2 2 3 3 3 3 3 4 4 3 3 3 3 3 2 2 2 3 3 3 2
4 4 2 0 4 5 4 4 4 4 4 4 4 7 5 6 5 5 5 5 4 4 3 3 3 2 2 1 2 3 3 3 3 3 3 2 2 2 2 2 3 3 3 3
4 4 2 5 2 2 3 6 7 5 4 4 4 7 4 4 4 4 5 4 3 3 2 2 2 2 2 2 2 3 3 3 3 3 3 3 2 2 2 3 3 3 3 3
5 4 1 3 1 0 2 3 5 4 4 5 5 7 2 2 2 2 3 4 3 2 2 2 2 2 3 3 3 3 3 3 3 3 3 3 3 3 3 3 3 3 3 3
5 4 6 7 5 4 4 5 6 6 5 6 9 10 7 6 5 5 5 4 4 3 3 3 3 4 4 3 3 3 3 3 3 3 3 3 4 4 3 3 3 3 3 3
4 4 4 4 2 3 5 7 8 11 10 10 10 11 12 8 6 6 5 4 4 4 4 4 4 4 4 4 3 3 3 3 3 3 3 4 3 3 3 3 3 3 3 4
2 3 2 3 2 3 7 9 11 11 9 11 11 14 10 6 4 5 6 5 6 6 6 5 5 5 5 5 4 4 4 3 3 4 4 3 3 3 3 3 3 3 3 3
3 4 3 3 2 2 8 9 11 8 9 10 14 14 5 5 7 7 7 7 7 8 7 6 6 6 6 5 5 5 5 3 3 4 4 4 4 4 4 3 3 3 3 3
6 4 3 1 1 7 7 2 7 8 9 10 9 8 6 8 7 7 7 7 8 8 7 6 6 6 5 4 4 4 3 3 4 4 4 4 4 4 3 3 3 3 3 3
4 6 3 3 3 8 7 3 5 6 8 8 11 10 7 4 4 6 6 6 7 7 7 6 6 5 4 4 4 3 3 4 4 5 5 4 4 4 3 4 4 3 3 3
2 4 4 3 3 6 6 2 3 3 6 5 7 8 6 2 3 6 4 3 5 6 5 5 4 4 4 4 4 4 4 4 5 5 5 4 4 4 4 4 3 2 2 3
3 3 5 5 5 8 6 2 4 3 6 3 4 5 5 6 7 5 4 4 4 5 5 4 3 4 4 4 4 5 5 6 5 4 4 4 4 4 4 3 2 2 2 2
8 6 6 5 5 9 3 6 7 7 3 2 3 4 6 7 6 6 6 6 5 5 4 3 3 4 3 3 4 5 6 5 3 3 3 3 3 3 2 2 2 2 2 2
7 8 6 9 9 4 5 6 5 3 4 4 4 5 4 5 6 6 6 6 5 5 5 3 3 4 3 3 4 5 4 2 2 2 3 2 2 2 2 2 2 2 2 2
4 3 4 5 8 7 7 7 6 5 6 6 5 5 4 6 6 6 6 6 5 4 4 3 2 3 3 3 3 4 3 2 2 3 2 2 2 2 2 2 2 2 2 2
6 5 4 6 8 7 7 8 9 7 6 6 5 5 6 6 7 6 6 6 5 5 4 3 3 4 4 3 2 2 2 2 2 2 2 2 2 2 2 2 2 3 3 3
6 7 8 9 8 6 7 5 5 6 7 7 7 6 6 6 7 6 6 6 5 5 4 3 3 4 4 3 3 2 2 3 3 2 2 2 2 2 1 1 1 2 3 4
Wind_Direction
66 98 203 216 208 197 164 180 228 253 292 230 239 260 267 253 224 227 227 223 227 234 246 218 170 148 131 124 132 142 138 136 124 116 113 102 97 71 52 41 40 50 56 60
76 237 238 195 171 150 158 195 243 294 359 281 279 276 266 240 227 222 219 220 219 221 234 205 152 148 155 158 161 157 157 152 146 146 139 125 140 138 68 32 35 36 43 53
179 245 197 149 145 176 222 208 216 243 344 10 332 301 271 258 240 244 226 217 213 209 211 204 180 180 175 176 176 172 164 151 146 123 99 75 59 49 48 17 355 3 10 26
215 286 131 150 194 180 234 227 202 206 118 290 5 284 273 253 270 251 243 227 223 219 209 202 193 190 192 194 179 172 169 158 148 137 141 143 155 189 224 256 283 338 357 359
240 248 163 198 214 173 184 109 142 165 164 296 268 235 280 274 258 252 241 229 223 219 210 205 203 204 200 187 176 174 167 165 161 158 164 164 178 199 193 305 329 335 339 338
253 271 199 203 165 144 133 75 59 51 74 263 230 205 273 239 233 242 234 227 224 221 218 217 213 191 185 172 165 165 168 178 172 169 175 176 184 185 174 239 278 317 323 330
295 282 298 115 111 90 107 106 41 352 329 251 220 216 250 251 242 227 223 233 232 215 206 205 193 185 189 182 178 173 176 187 184 181 188 193 196 196 200 211 226 262 291 289
203 263 230 203 178 174 173 154 168 202 229 272 256 236 254 262 269 254 234 234 230 222 208 206 203 197 199 198 190 182 186 196 193 192 199 195 192 198 211 216 219 232 245 258
188 241 311 209 209 145 148 180 163 138 139 271 264 279 297 271 274 251 238 231 238 238 230 224 219 208 203 203 204 198 195 198 198 199 198 201 197 202 217 228 224 234 248 264
167 213 274 285 106 48 142 143 119 148 186 250 277 268 257 262 247 243 234 237 245 247 249 252 239 225 216 211 211 202 196 200 200 195 199 211 213 216 220 224 237 242 247 249
159 175 290 33 187 186 138 144 149 154 174 188 260 267 232 232 229 225 238 244 250 255 253 256 258 241 218 207 200 202 198 194 200 204 205 209 219 222 221 228 239 245 250 247
169 152 225 249 247 204 183 178 161 177 221 194 213 268 280 249 260 239 251 261 264 260 260 261 257 238 213 211 213 212 210 208 211 207 207 211 214 215 224 238 242 244 249 255
150 143 122 334 330 196 213 196 178 151 146 184 205 262 302 336 309 266 257 269 276 279 279 277 259 239 230 221 219 220 220 220 218 207 206 211 214 219 231 240 241 241 246 258
143 160 190 208 221 189 212 208 185 174 202 221 228 252 282 288 285 289 284 276 273 269 262 262 260 249 242 235 224 223 230 222 219 212 211 218 221 223 232 241 246 248 250 255
138 192 218 246 252 211 229 221 203 209 213 221 242 243 256 258 257 262 265 271 269 268 266 258 250 244 241 242 236 225 229 224 217 216 223 231 233 230 234 244 251 254 253 255
142 174 179 262 246 242 262 244 223 228 230 237 256 264 257 255 248 256 257 258 261 261 262 259 255 248 242 236 234 231 229 228 216 219 229 231 230 231 235 240 244 247 254 258
166 154 165 247 276 310 268 233 210 213 214 206 235 252 255 250 248 246 247 246 252 261 265 259 252 248 243 234 226 224 225 226 220 225 229 224 219 226 233 237 241 248 255 257
161 149 156 182 80 243 251 206 193 214 239 223 239 257 246 246 258 256 241 237 252 259 257 255 252 252 250 234 227 222 219 219 222 228 229 224 219 227 233 232 240 253 257 252
175 157 145 155 230 273 288 237 182 201 264 228 233 254 263 276 302 282 246 230 239 244 247 246 244 246 243 234 222 211 220 220 224 230 229 225 218 225 230 235 244 253 256 265
110 138 150 162 203 244 257 241 188 132 283 252 216 238 248 189 264 270 265 254 251 252 255 253 248 243 240 236 206 201 219 221 229 231 231 225 217 219 228 236 245 255 254 266
142 152 186 194 228 262 254 192 132 172 251 276 211 225 211 212 233 269 291 280 269 266 264 258 246 245 243 224 196 212 221 228 233 231 228 225 217 218 227 235 238 236 256 273
177 176 191 175 213 251 205 145 188 223 262 241 229 227 228 247 270 283 285 283 286 283 276 262 251 256 251 213 198 220 232 234 222 214 219 225 222 220 218 209 231 230 235 255
201 194 189 197 219 248 187 207 233 243 254 255 249 254 242 259 271 279 281 281 281 276 273 262 246 256 255 221 205 223 240 220 200 203 216 223 227 217 209 201 210 224 228 243
241 202 192 244 259 256 249 253 260 248 249 264 258 255 241 252 264 273 277 282 282 277 270 262 249 253 260 244 229 227 232 203 189 203 218 218 211 211 209 208 207 215 228 243
212 176 203 248 269 286 266 242 248 255 258 266 264 251 245 247 261 261 268 272 272 274 269 252 241 246 254 254 247 234 209 185 196 209 214 216 211 202 204 220 227 229 233 236
195 188 197 231 231 220 254 255 241 244 252 255 262 269 255 241 252 258 260 262 262 263 260 256 249 249 253 250 249 234 207 188 186 203 210 205 193 194 200 220 301 290 272 284
Height
1490 1494 1496 1496 1496 1496 1497 1499 1500 1499 1498 1498 1498 1497 1494 1493 1493 1493 1493 1493 1493 1494 1495 1496 1497 1497 1498 1499 1501 1502 1504 1505 1507 1508 1509 1510 1511 1513 1513 1514 1514 1515 1515 1515
1494 1496 1493 1494 1495 1496 1497 1499 1500 1499 1498 1498 1498 1496 1492 1490 1490 1489 1489 1490 1490 1492 1493 1494 1494 1495 1496 1497 1499 1500 1501 1503 1504 1506 1507 1509 1509 1510 1511 1511 1512 1512 1513 1513
1492 1494 1492 1493 1495 1496 1498 1500 1501 1501 1499 1499 1499 1495 1491 1487 1487 1487 1486 1487 1488 1489 1490 1491 1492 1493 1494 1495 1497 1498 1499 1501 1502 1504 1505 1506 1507 1507 1507 1508 1509 1510 1510 1510
1493 1492 1492 1493 1495 1496 1498 1498 1499 1499 1502 1505 1503 1502 1490 1487 1486 1484 1483 1484 1484 1486 1487 1488 1490 1491 1492 1494 1495 1496 1498 1499 1500 1501 1502 1503 1504 1504 1504 1506 1506 1507 1507 1508
1493 1492 1492 1493 1494 1494 1497 1497 1499 1500 1504 1507 1505 1505 1491 1487 1484 1481 1480 1480 1481 1483 1485 1486 1487 1489 1490 1491 1493 1494 1495 1496 1497 1498 1499 1500 1501 1502 1503 1504 1504 1504 1504 1504
1492 1492 1492 1492 1492 1493 1496 1499 1502 1506 1508 1509 1504 1504 1492 1486 1479 1478 1478 1478 1479 1480 1482 1483 1485 1486 1487 1489 1490 1491 1492 1493 1494 1495 1496 1497 1498 1499 1499 1500 1500 1500 1501 1501
1494 1492 1491 1491 1493 1495 1496 1503 1510 1510 1515 1509 1503 1502 1490 1479 1476 1475 1475 1476 1477 1478 1480 1481 1482 1483 1485 1486 1487 1488 1489 1490 1491 1492 1493 1494 1495 1496 1496 1496 1496 1497 1497 1497
1496 1496 1491 1491 1491 1494 1496 1499 1507 1509 1511 1508 1504 1500 1484 1476 1474 1473 1474 1475 1476 1477 1478 1478 1479 1481 1482 1483 1484 1485 1486 1487 1488 1488 1489 1490 1492 1492 1493 1493 1493 1493 1493 1494
1495 1494 1491 1490 1490 1491 1496 1500 1501 1510 1515 1512 1502 1496 1483 1474 1473 1473 1473 1473 1474 1475 1476 1477 1478 1479 1480 1480 1481 1482 1483 1484 1485 1485 1486 1487 1488 1489 1489 1490 1490 1490 1490 1490
1490 1495 1492 1491 1490 1492 1493 1497 1504 1507 1507 1504 1498 1496 1485 1474 1472 1472 1472 1472 1472 1473 1474 1475 1476 1477 1477 1478 1479 1480 1481 1481 1482 1482 1483 1484 1485 1485 1486 1486 1486 1486 1486 1486
1489 1494 1495 1493 1493 1493 1495 1498 1500 1505 1506 1506 1502 1489 1475 1472 1470 1471 1470 1470 1471 1471 1471 1472 1473 1474 1475 1476 1477 1477 1478 1478 1479 1479 1480 1481 1481 1482 1482 1482 1482 1482 1482 1482
1488 1493 1496 1495 1493 1492 1492 1493 1498 1501 1504 1510 1508 1490 1471 1470 1469 1469 1469 1469 1469 1470 1470 1471 1471 1472 1472 1473 1474 1474 1475 1475 1476 1476 1477 1478 1478 1478 1478 1479 1479 1478 1478 1478
1487 1492 1495 1493 1496 1495 1494 1494 1495 1499 1503 1509 1503 1485 1470 1469 1468 1468 1468 1468 1468 1468 1468 1469 1469 1470 1470 1470 1471 1471 1472 1472 1473 1473 1474 1474 1474 1474 1474 1475 1475 1474 1474 1474
1483 1490 1490 1487 1485 1489 1492 1493 1494 1496 1498 1499 1493 1480 1471 1469 1468 1467 1466 1466 1466 1466 1466 1467 1467 1467 1467 1467 1468 1468 1469 1469 1469 1470 1470 1470 1470 1470 1471 1471 1471 1470 1470 1470
1482 1487 1489 1488 1488 1489 1488 1487 1490 1490 1487 1487 1479 1478 1468 1467 1466 1465 1465 1464 1464 1464 1464 1464 1464 1464 1464 1464 1465 1465 1465 1466 1466 1466 1466 1466 1467 1467 1467 1467 1467 1466 1466 1466
1482 1486 1488 1488 1487 1488 1486 1482 1484 1484 1483 1481 1477 1471 1463 1464 1463 1463 1462 1462 1461 1461 1461 1461 1461 1461 1461 1461 1461 1461 1462 1462 1462 1462 1462 1462 1463 1463 1463 1463 1463 1462 1462 1462
1483 1485 1486 1485 1488 1485 1480 1473 1475 1476 1473 1473 1470 1461 1460 1461 1460 1459 1458 1459 1458 1458 1458 1458 1458 1458 1458 1458 1458 1458 1458 1458 1458 1458 1458 1458 1458 1458 1459 1459 1458 1458 1458 1457
1481 1484 1488 1488 1488 1483 1466 1465 1465 1467 1465 1465 1461 1458 1457 1457 1456 1455 1455 1455 1454 1454 1454 1454 1454 1454 1455 1455 1454 1455 1455 1454 1454 1454 1454 1454 1454 1454 1454 1454 1454 1454 1454 1453
1476 1481 1487 1490 1487 1477 1465 1463 1464 1465 1461 1457 1457 1454 1454 1454 1454 1451 1451 1451 1451 1451 1451 1451 1451 1451 1451 1450 1450 1450 1450 1450 1450 1449 1449 1450 1450 1450 1450 1450 1450 1450 1450 1449
1477 1478 1485 1489 1484 1476 1461 1459 1458 1461 1460 1451 1451 1451 1452 1453 1455 1449 1447 1448 1447 1447 1447 1446 1446 1446 1446 1446 1446 1446 1445 1445 1445 1445 1446 1446 1446 1446 1446 1447 1447 1447 1446 1445
1478 1481 1482 1484 1483 1470 1458 1457 1459 1463 1455 1448 1447 1448 1449 1449 1448 1446 1445 1444 1444 1443 1442 1442 1442 1442 1442 1442 1442 1441 1441 1441 1442 1442 1442 1442 1442 1443 1443 1443 1443 1443 1443 1442
1472 1477 1480 1481 1480 1468 1454 1456 1457 1451 1447 1446 1445 1445 1445 1444 1443 1443 1442 1441 1440 1439 1438 1438 1437 1437 1438 1438 1437 1437 1437 1438 1438 1438 1438 1439 1439 1439 1440 1440 1440 1440 1439 1438
1467 1465 1465 1465 1459 1451 1449 1448 1447 1446 1445 1444 1443 1443 1443 1441 1440 1440 1439 1438 1437 1436 1435 1434 1434 1433 1434 1434 1434 1434 1434 1434 1434 1434 1435 1435 1435 1436 1436 1436 1436 1436 1436 1435
1461 1459 1461 1459 1450 1446 1445 1445 1444 1444 1443 1442 1441 1441 1440 1439 1438 1437 1436 1435 1433 1432 1431 1430 1430 1429 1430 1430 1430 1431 1431 1431 1431 1431 1431 1431 1432 1432 1433 1433 1433 1433 1432 1432
1453 1456 1457 1454 1446 1443 1440 1440 1440 1440 1439 1439 1438 1437 1437 1436 1435 1434 1432 1431 1430 1429 1428 1427 1427 1426 1426 1427 1427 1428 1428 1428 1427 1427 1428 1428 1429 1429 1429 1430 1430 1430 1430 1430
1446 1448 1449 1444 1439 1439 1436 1436 1436 1436 1435 1435 1434 1433 1432 1432 1431 1430 1428 1428 1427 1426 1425 1424 1424 1424 1424 1424 1424 1424 1425 1425 1424 1424 1425 1426 1426 1426 1427 1427 1427 1428 1428 1428